Location: Unspecified
(0.0000°N, 0.0000°E)
Time: 10:22:25
(UTC+00:00)

METEOR M2 - Pass Details

Date: 04 June 2024
Orbit: 818 x 826 km, 98.4° (Epoch: 19 June)

Event Time Altitude Azimuth Distance (km) Brightness Sun altitude
Rises 04:12:57 0° 38° (NE) 3,343 ? -24.2°
Reaches altitude 10° 04:15:48 10° 53° (NE) 2,415 ? -23.6°
Maximum altitude 04:19:50 22° 103° (ESE) 1,726 ? -22.7°
Drops below altitude 10° 04:23:54 10° 152° (SSE) 2,425 ? -21.7°
Sets 04:26:44 0° 167° (SSE) 3,361 ? -21.1°
